Location: Bailleul
(50.3375°N, 2.8513°E)
Time: 09:51:20
(UTC+00:00)

OBJECT-B - Pass Details

Date: 19 April 2021
Orbit: 415 x 424 km, 97.0° (Epoch: 25 April)

Event Time Altitude Azimuth Distance (km) Brightness Sun altitude
Rises 20:34:52 0° 208° (SSW) 2,359 4.4 -15.3°
Reaches altitude 10° 20:37:34 10° 235° (SW) 1,505 3.7 -15.6°
Maximum altitude 20:39:24 14° 270° (W) 1,274 3.8 -15.8°
Drops below altitude 10° 20:41:15 10° 304° (NW) 1,516 4.9 -16.1°
Sets 20:44:00 0° 331° (NNW) 2,391 6.0 -16.4°
